| time (UTC) | temp C | wind direction | speed KPH | gust KPH | rain 1hr cm | rain 24hr cm | rain mn cm | humidity % | barometer mb |
| 20260902120033 | 20 | 23 | 0.0 | 8.0 | 0.00 | 0.05 | 0.00 | 93 | 1015.6 |
| 20260902114530 | 20 | 12 | 0.0 | 0.0 | 0.00 | 0.05 | 0.00 | 93 | 1015.7 |
| 20260902113035 | 19 | 11 | 0.0 | 0.0 | 0.00 | 0.05 | 0.00 | 93 | 1015.2 |
| 20260902111528 | 18 | 11 | 0.0 | 0.0 | 0.00 | 0.05 | 0.00 | 93 | 1015.3 |
| 20260902110038 | 18 | 11 | 0.0 | 0.0 | 0.00 | 0.05 | 0.00 | 92 | 1015.3 |
| 20260902104526 | 18 | 11 | 0.0 | 0.0 | 0.00 | 0.05 | 0.00 | 93 | 1015.2 |
| 20260902103025 | 18 | 11 | 0.0 | 0.0 | 0.00 | 0.05 | 0.00 | 93 | 1015.4 |
| 20260902101529 | 18 | 11 | 0.0 | 0.0 | 0.00 | 0.05 | 0.00 | 92 | 1015.3 |
| 20260902100022 | 18 | 11 | 0.0 | 0.0 | 0.00 | 0.05 | 0.00 | 93 | 1015.3 |
| 20260902094524 | 18 | 11 | 0.0 | 0.0 | 0.00 | 0.05 | 0.00 | 93 | 1015.4 |
| 20260902093029 | 18 | 11 | 0.0 | 0.0 | 0.00 | 0.05 | 0.00 | 93 | 1015.4 |
| 20260902091517 | 19 | 11 | 0.0 | 0.0 | 0.00 | 0.05 | 0.00 | 93 | 1015.6 |
| 20260902090018 | 18 | 11 | 0.0 | 0.0 | 0.00 | 0.05 | 0.05 | 93 | 1015.7 |
| 20260902084520 | 18 | 11 | 0.0 | 0.0 | 0.00 | 0.05 | 0.05 | 93 | 1015.7 |
| 20260902083018 | 18 | 11 | 0.0 | 0.0 | 0.00 | 0.05 | 0.05 | 93 | 1015.7 |
| 20260902081519 | 18 | 11 | 0.0 | 0.0 | 0.00 | 0.05 | 0.05 | 93 | 1015.5 |
| 20260902080017 | 19 | 11 | 0.0 | 0.0 | 0.00 | 0.05 | 0.05 | 93 | 1015.6 |
| 20260902074516 | 19 | 11 | 0.0 | 0.0 | 0.00 | 0.05 | 0.05 | 93 | 1015.6 |
| 20260902073017 | 19 | 11 | 0.0 | 0.0 | 0.00 | 0.05 | 0.05 | 93 | 1015.5 |
| 20260902071515 | 19 | 11 | 0.0 | 0.0 | 0.00 | 0.05 | 0.05 | 93 | 1015.7 |
| 20260902070019 | 19 | 11 | 0.0 | 0.0 | 0.00 | 0.05 | 0.05 | 93 | 1015.8 |
| 20260902064512 | 19 | 11 | 0.0 | 0.0 | 0.00 | 0.05 | 0.05 | 93 | 1015.7 |
| 20260902063014 | 19 | 11 | 0.0 | 0.0 | 0.00 | 0.05 | 0.05 | 93 | 1015.5 |
| 20260902061531 | 19 | 11 | 0.0 | 0.0 | 0.00 | 0.05 | 0.05 | 93 | 1015.8 |
| 20260902060113 | 19 | 11 | 0.0 | 0.0 | 0.00 | 0.05 | 0.05 | 93 | 1016.1 |
| 20260902054515 | 19 | 11 | 0.0 | 0.0 | 0.00 | 0.05 | 0.05 | 93 | 1016.3 |
| 20260902053013 | 19 | 11 | 0.0 | 0.0 | 0.00 | 0.05 | 0.05 | 92 | 1016.2 |
| 20260902051508 | 19 | 11 | 0.0 | 0.0 | 0.00 | 0.08 | 0.05 | 92 | 1016.0 |
| 20260902050008 | 20 | 11 | 0.0 | 0.0 | 0.00 | 0.08 | 0.05 | 92 | 1015.8 |
| 20260902044506 | 20 | 11 | 0.0 | 0.0 | 0.00 | 0.08 | 0.05 | 92 | 1015.7 |
| 20260902043003 | 20 | 11 | 0.0 | 0.0 | 0.00 | 0.08 | 0.05 | 92 | 1015.5 |
| 20260902041503 | 20 | 11 | 0.0 | 0.0 | 0.00 | 0.08 | 0.05 | 92 | 1015.2 |
| 20260902040001 | 20 | 11 | 0.0 | 0.0 | 0.00 | 0.08 | 0.05 | 92 | 1015.1 |
| 20260902034502 | 20 | 11 | 0.0 | 0.0 | 0.00 | 0.08 | 0.05 | 92 | 1015.1 |
| 20260902033001 | 20 | 11 | 0.0 | 0.0 | 0.00 | 0.08 | 0.05 | 92 | 1015.0 |
| 20260902024600 | 20 | 11 | 0.0 | 0.0 | 0.00 | 0.08 | 0.05 | 90 | 1015.0 |
| 20260902023109 | 21 | 360 | 0.0 | 0.0 | 0.00 | 0.08 | 0.05 | 91 | 1015.2 |
| 20260902020057 | 21 | 360 | 0.0 | 0.0 | 0.00 | 0.08 | 0.05 | 90 | 1015.0 |
| 20260902014556 | 21 | 360 | 0.0 | 0.0 | 0.00 | 0.08 | 0.05 | 90 | 1015.1 |
| 20260902013057 | 21 | 30 | 0.0 | 0.0 | 0.00 | 0.08 | 0.05 | 89 | 1014.8 |
| 20260902010054 | 22 | 30 | 0.0 | 0.0 | 0.00 | 0.08 | 0.05 | 87 | 1014.5 |
| 20260902004554 | 22 | 30 | 0.0 | 0.0 | 0.00 | 0.08 | 0.05 | 86 | 1014.3 |
| 20260902003054 | 22 | 30 | 0.0 | 0.0 | 0.00 | 0.08 | 0.05 | 87 | 1014.4 |
| 20260902000057 | 23 | 5 | 0.0 | 0.0 | 0.00 | 0.08 | 0.05 | 86 | 1013.9 |
| 20260901234551 | 23 | 5 | 0.0 | 0.0 | 0.00 | 0.08 | 0.05 | 87 | 1013.5 |
| 20260901233055 | 23 | 5 | 0.0 | 0.0 | 0.00 | 0.08 | 0.05 | 86 | 1013.0 |
| 20260901230052 | 24 | 5 | 0.0 | 4.8 | 0.00 | 0.08 | 0.05 | 84 | 1013.1 |
| 20260901224551 | 25 | 13 | 0.0 | 4.8 | 0.03 | 0.08 | 0.05 | 83 | 1013.5 |
| 20260901223053 | 25 | 15 | 0.0 | 8.0 | 0.03 | 0.08 | 0.05 | 84 | 1013.1 |
| 20260901220055 | 26 | 57 | 0.0 | 0.0 | 0.03 | 0.08 | 0.05 | 78 | 1013.2 |
| 20260901214550 | 27 | 60 | 0.0 | 1.6 | 0.00 | 0.05 | 0.03 | 74 | 1012.8 |
| 20260901213049 | 28 | 41 | 0.0 | 3.2 | 0.00 | 0.05 | 0.03 | 69 | 1013.1 |
| 20260901210050 | 30 | 306 | 11.3 | 20.9 | 0.00 | 0.05 | 0.03 | 62 | 1012.3 |
| 20260901204546 | 30 | 301 | 9.7 | 17.7 | 0.00 | 0.05 | 0.03 | 62 | 1012.3 |
| 20260901203045 | 29 | 306 | 1.6 | 14.5 | 0.00 | 0.05 | 0.03 | 65 | 1012.3 |
| 20260901200041 | 29 | 303 | 0.0 | 8.0 | 0.00 | 0.05 | 0.03 | 67 | 1012.7 |
| 20260901194538 | 28 | 302 | 6.4 | 12.9 | 0.00 | 0.05 | 0.03 | 67 | 1012.7 |
| 20260901193037 | 29 | 296 | 1.6 | 8.0 | 0.00 | 0.05 | 0.03 | 66 | 1013.0 |
| 20260901190035 | 28 | 302 | 0.0 | 3.2 | 0.00 | 0.05 | 0.03 | 72 | 1013.1 |
| 20260901184541 | 28 | 303 | 1.6 | 8.0 | 0.00 | 0.05 | 0.03 | 68 | 1013.3 |
| 20260901183044 | 28 | 304 | 0.0 | 8.0 | 0.00 | 0.05 | 0.03 | 71 | 1013.4 |
| 20260901180032 | 28 | 315 | 0.0 | 8.0 | 0.00 | 0.05 | 0.03 | 70 | 1013.4 |
| 20260901174531 | 28 | 316 | 0.0 | 6.4 | 0.00 | 0.05 | 0.03 | 71 | 1013.4 |
| 20260901173031 | 28 | 301 | 3.2 | 9.7 | 0.00 | 0.05 | 0.03 | 71 | 1013.3 |
| 20260901170028 | 27 | 303 | 3.2 | 24.1 | 0.00 | 0.05 | 0.03 | 71 | 1013.3 |
| 20260901164538 | 27 | 305 | 0.0 | 1.6 | 0.00 | 0.05 | 0.03 | 75 | 1013.4 |
| 20260901163024 | 27 | 303 | 6.4 | 12.9 | 0.00 | 0.05 | 0.03 | 74 | 1013.5 |
| 20260901160018 | 26 | 280 | 0.0 | 14.5 | 0.00 | 0.05 | 0.03 | 78 | 1013.5 |
| 20260901154516 | 26 | 288 | 0.0 | 9.7 | 0.00 | 0.05 | 0.03 | 79 | 1013.7 |
| 20260901153016 | 26 | 306 | 0.0 | 8.0 | 0.00 | 0.05 | 0.03 | 78 | 1013.6 |
| 20260901150011 | 25 | 151 | 0.0 | 4.8 | 0.00 | 0.08 | 0.03 | 81 | 1013.9 |
| 20260901144506 | 24 | 154 | 0.0 | 3.2 | 0.00 | 0.08 | 0.03 | 83 | 1013.9 |
| 20260901143006 | 24 | 154 | 0.0 | 6.4 | 0.00 | 0.08 | 0.03 | 83 | 1014.0 |
| 20260901140002 | 23 | 150 | 0.0 | 9.7 | 0.00 | 0.08 | 0.03 | 83 | 1014.2 |
| 20260901134559 | 23 | 152 | 0.0 | 6.4 | 0.00 | 0.08 | 0.03 | 87 | 1014.0 |
| 20260901133055 | 22 | 152 | 0.0 | 6.4 | 0.00 | 0.08 | 0.03 | 88 | 1014.1 |
| 20260901130059 | 21 | 152 | 1.6 | 6.4 | 0.03 | 0.08 | 0.03 | 89 | 1014.2 |
| 20260901124550 | 21 | 152 | 0.0 | 4.8 | 0.03 | 0.08 | 0.03 | 90 | 1014.4 |
| 20260901123050 | 21 | 153 | 0.0 | 6.4 | 0.03 | 0.08 | 0.03 | 90 | 1014.7 |